Theta_e
333 334 335 335 331 330 328 324 321 321 323 326 329 331 332 331 332 331 330 330 329 324 334 335 333 333 334 335 324 326 320 317 316 314 314 312 311 311 312 313 315 315 316
331 332 335 335 332 332 330 327 321 321 322 325 328 330 329 328 329 330 326 329 328 319 322 336 334 331 332 316 317 314 314 313 313 314 317 316 314 313 311 310 311 311 314
330 331 335 335 334 333 331 329 324 321 323 326 328 327 327 328 328 323 323 327 325 318 324 330 325 322 312 312 313 315 315 316 317 317 316 315 314 314 314 313 312 312 314
328 329 334 335 335 333 333 331 326 322 322 324 325 324 325 325 326 323 322 324 320 316 319 319 315 311 312 313 314 315 315 317 316 315 316 316 315 315 315 315 314 314 315
326 328 333 335 335 334 334 333 329 325 322 322 323 323 323 323 323 323 321 319 316 318 318 313 312 315 320 323 324 322 321 322 322 319 317 316 316 316 316 316 315 316 316
326 329 332 335 336 335 334 334 331 328 324 322 322 323 322 322 322 322 322 317 316 317 314 313 315 324 329 331 332 331 329 327 328 329 326 320 317 317 317 317 316 316 316
327 331 333 335 335 335 334 334 333 329 327 323 321 322 322 322 323 322 321 317 316 316 315 315 318 326 331 332 332 331 330 329 328 328 326 323 320 318 317 317 317 318 318
324 327 331 334 334 335 335 334 333 330 328 325 322 320 321 321 320 321 321 319 317 318 316 315 317 323 328 329 328 329 330 329 329 330 331 331 326 319 319 318 318 318 319
319 320 324 329 332 334 333 332 332 332 328 326 323 322 320 319 319 319 319 320 318 317 317 316 315 315 318 322 326 328 331 331 330 330 331 332 333 329 324 319 319 319 319
322 320 318 319 324 327 328 328 328 329 327 326 324 321 321 319 318 318 318 319 319 318 317 316 316 316 316 317 326 328 330 330 333 334 333 333 334 333 334 325 321 319 319
327 324 323 321 320 321 322 322 324 326 326 324 323 323 320 319 318 318 318 317 318 318 318 317 317 317 316 316 316 322 329 329 331 335 335 336 337 335 335 333 331 326 322
335 327 326 325 323 322 322 322 321 320 321 323 323 322 321 320 319 318 318 318 318 317 317 317 317 317 316 316 316 316 317 327 329 335 335 336 337 337 336 336 335 333 329
339 336 327 327 327 326 325 324 323 322 321 320 321 321 321 322 319 319 318 318 318 318 317 317 317 317 317 317 317 317 317 316 323 334 335 335 336 336 337 337 336 335 334
341 341 333 328 328 328 328 328 328 334 334 329 324 321 320 320 321 322 319 320 320 322 322 320 319 319 318 318 317 317 317 317 316 330 333 333 335 335 336 337 336 336 336
342 343 341 336 333 332 330 332 336 337 337 337 335 335 336 333 326 324 323 323 324 326 329 329 330 331 331 329 321 318 318 318 318 317 322 324 327 332 334 335 336 336 337
342 343 343 342 340 338 337 336 339 340 338 338 337 337 337 336 336 336 335 334 329 328 328 331 334 332 333 333 333 329 323 321 319 319 319 320 326 326 327 333 333 335 336
340 342 344 343 342 342 341 339 341 340 340 340 339 337 336 336 336 335 335 336 336 336 335 334 333 335 335 333 332 333 333 332 330 325 323 322 321 322 328 330 330 331 332
335 339 343 343 343 343 343 342 341 341 340 339 338 340 339 336 336 335 336 335 337 335 334 335 335 335 334 335 334 333 334 333 333 333 332 331 327 326 326 324 324 325 324
326 330 335 339 342 342 340 340 338 338 339 339 338 338 338 337 335 338 335 335 336 337 337 336 336 337 336 335 335 335 334 334 334 333 333 333 332 331 329 325 323 325 325
313 316 322 330 331 334 336 335 331 336 336 337 338 337 336 336 336 338 338 337 335 335 338 338 338 335 336 337 336 336 335 335 334 333 332 332 332 331 329 328 325 325 323
310 311 312 315 322 322 326 329 327 327 324 324 324 327 331 333 332 333 334 336 337 337 337 337 337 337 337 337 337 335 333 334 335 333 331 331 329 328 329 328 324 323 324
304 304 305 306 309 311 312 314 315 315 315 314 314 315 317 317 319 319 321 323 328 332 333 334 333 334 336 336 334 336 335 334 333 333 334 333 332 329 328 326 324 324 322
303 303 303 302 302 303 304 306 307 309 309 310 310 309 308 309 309 310 312 314 314 315 318 320 323 325 327 331 331 330 333 333 333 333 333 333 334 334 332 330 326 325 323
303 303 302 302 302 302 302 302 302 302 302 301 301 301 302 303 304 305 305 306 307 308 310 311 311 313 314 319 325 327 327 326 328 331 332 332 332 332 333 333 333 330 325
303 302 301 300 300 300 300 300 300 299 298 298 298 299 299 298 298 298 299 299 300 301 302 304 306 308 308 308 310 313 318 320 322 322 323 326 328 328 331 333 332 333 334
303 302 301 300 299 299 298 298 298 297 297 297 297 297 297 297 297 297 297 297 297 298 298 298 298 300 303 304 305 307 307 308 310 311 313 315 320 323 328 329 332 332 331
Wind_Speed
24 23 21 18 16 15 14 13 13 15 17 18 19 18 18 16 15 13 10 9 9 9 11 13 11 8 7 7 7 9 9 10 11 12 12 12 13 14 13 13 13 13 13
27 24 22 18 16 14 15 15 14 15 17 18 19 18 16 14 10 9 9 9 9 9 12 12 10 8 8 8 12 13 14 13 12 11 11 12 13 13 12 11 11 11 11
27 25 23 20 16 14 15 16 15 15 16 18 16 15 14 12 12 10 9 10 9 10 13 13 11 11 11 13 15 16 17 15 13 13 11 10 11 10 11 11 10 10 10
26 25 23 20 17 15 15 15 15 15 15 15 15 14 12 12 11 10 10 9 8 9 13 13 13 14 16 16 16 16 16 15 13 12 10 9 7 8 8 8 8 8 8
26 24 23 19 16 14 14 14 14 15 14 14 13 13 12 10 10 10 10 10 10 10 13 14 16 16 17 17 16 14 13 12 10 10 9 8 6 5 5 5 5 6 6
24 23 22 19 14 13 13 12 13 13 14 13 12 11 10 9 8 8 9 10 10 11 12 14 16 17 17 15 13 11 8 8 8 6 7 7 6 3 2 3 4 4 5
23 21 20 19 15 12 11 11 10 10 12 12 11 10 9 7 7 7 8 9 11 12 13 13 14 15 14 12 10 7 5 4 4 5 5 5 4 2 2 2 2 3 3
20 20 20 18 16 14 12 11 9 8 7 8 9 9 9 8 6 6 7 7 9 11 13 14 13 13 11 10 8 6 3 1 1 2 3 3 3 2 3 5 5 5 4
17 18 19 18 17 15 13 11 10 8 7 6 5 6 6 7 7 6 6 7 8 9 10 12 12 12 11 10 9 8 5 3 4 3 3 2 3 4 4 5 8 8 7
14 14 15 17 17 16 14 12 10 9 8 7 6 5 4 4 4 4 5 6 7 8 9 10 11 11 12 12 12 10 9 7 6 5 4 5 7 7 7 6 7 10 11
15 14 13 13 14 14 13 11 10 9 7 6 6 5 4 4 3 4 4 5 6 7 8 9 10 11 12 12 13 14 14 12 11 9 8 10 12 13 12 10 9 10 13
12 14 14 12 11 10 10 9 8 7 6 5 5 4 3 4 4 5 6 6 7 7 8 9 10 11 12 12 13 14 16 18 17 15 11 11 11 14 15 14 13 13 14
7 8 11 11 9 8 7 6 5 3 2 3 4 5 5 5 6 7 7 8 8 9 10 11 12 13 14 15 15 16 16 18 23 22 18 16 14 14 14 18 18 17 17
10 7 7 9 8 7 7 4 3 5 6 3 4 6 7 8 8 9 10 9 10 9 10 12 14 15 17 18 19 19 19 19 21 26 25 23 21 18 18 20 21 21 21
14 11 7 6 6 6 6 5 4 3 6 7 6 6 7 7 7 9 11 13 12 12 11 12 15 16 16 17 21 23 23 23 23 25 29 30 28 26 24 23 23 25 24
13 14 12 9 7 5 3 3 3 2 2 5 4 5 6 8 9 10 11 11 13 15 16 15 15 18 20 21 21 21 24 26 27 28 29 30 30 32 32 30 30 31 31
9 13 15 14 11 9 7 9 10 8 10 9 11 13 12 14 13 15 16 16 15 16 18 19 21 22 23 24 25 25 25 26 27 28 29 31 32 34 35 36 36 37 39
12 8 12 16 15 15 13 12 12 13 11 10 10 11 12 16 19 18 20 19 22 25 26 25 23 24 27 29 30 31 31 31 31 32 32 32 34 34 36 38 40 42 44
21 17 9 11 14 15 12 10 8 7 6 5 5 5 6 12 17 16 20 20 25 27 27 31 31 32 33 30 32 34 36 37 37 37 38 39 39 39 39 40 41 41 43
23 23 19 13 10 8 9 9 8 2 1 6 11 8 10 11 16 14 15 18 21 26 29 31 34 34 35 37 39 39 39 39 40 42 43 44 45 44 44 44 44 45 44
18 18 20 19 12 12 8 5 6 8 9 8 8 8 9 12 13 15 11 12 19 19 23 24 27 32 35 35 37 44 42 44 43 41 42 45 47 47 49 48 47 47 47
18 19 18 18 16 16 13 13 11 12 12 13 12 11 11 11 12 13 13 14 16 17 17 20 24 26 28 28 24 31 35 38 41 36 38 41 44 42 43 43 41 41 42
18 18 17 17 17 17 16 13 11 10 10 8 12 14 16 16 16 16 15 16 16 15 16 18 20 22 24 26 25 20 16 23 35 41 45 42 44 44 44 45 46 44 43
17 16 16 15 14 15 13 12 12 14 15 16 16 15 15 16 17 18 19 20 20 20 19 18 20 21 22 25 28 24 24 28 23 32 35 37 44 50 51 52 49 49 45
13 14 15 14 14 14 13 14 14 14 15 14 13 13 14 16 17 18 19 20 21 22 22 23 22 20 23 25 24 28 32 35 31 28 33 33 39 37 43 47 50 52 49
12 13 15 14 15 15 15 15 16 15 15 14 15 17 18 19 19 20 20 22 23 23 25 25 23 23 24 25 26 25 23 25 30 28 33 36 44 44 39 39 45 48 52
Wind_Direction
162 153 151 144 135 131 122 115 113 115 114 116 120 122 122 119 121 127 130 140 140 144 148 142 140 132 124 116 114 114 115 115 117 111 112 118 120 124 128 134 131 124 118
159 153 153 149 140 134 122 114 111 116 118 119 119 120 119 118 117 122 130 139 143 139 148 153 146 136 133 127 120 114 115 111 106 102 104 108 113 118 119 121 123 118 109
160 154 156 153 146 139 125 117 115 119 123 125 124 121 116 111 118 120 127 136 136 137 139 147 142 141 135 129 124 116 109 105 102 100 97 97 104 107 109 113 117 116 116
157 156 157 156 154 147 134 122 118 121 127 130 130 127 120 114 114 114 115 125 128 130 133 136 137 133 128 126 121 113 110 109 104 103 97 92 94 103 107 111 118 124 125
155 156 157 158 160 155 144 132 125 127 130 134 135 134 129 117 110 117 117 120 119 122 136 136 134 133 130 125 122 122 122 114 104 103 100 93 81 86 104 116 128 136 140
150 156 158 160 163 160 152 143 136 132 132 136 138 136 130 123 115 112 118 116 117 127 135 140 142 141 138 136 133 127 122 118 102 87 79 77 77 65 97 141 161 162 161
151 157 159 163 168 165 161 152 142 135 136 137 139 138 136 131 121 119 125 126 126 129 139 146 151 151 151 149 140 125 108 108 85 75 84 72 64 50 310 252 225 213 200
155 158 162 166 172 172 168 160 151 143 137 138 143 145 145 143 137 130 132 135 136 141 145 153 161 167 166 164 156 155 163 191 78 79 66 54 41 14 302 301 284 263 247
156 160 166 171 174 175 174 169 163 157 148 147 148 155 155 152 148 148 148 151 151 154 158 161 169 179 186 189 188 199 214 231 263 291 302 309 340 330 322 288 294 281 267
156 159 165 171 175 177 177 175 174 172 168 165 165 166 174 171 169 172 171 171 172 173 179 181 183 188 197 204 209 217 227 235 235 266 293 293 289 286 299 306 297 294 281
168 169 170 172 173 175 177 178 180 183 186 187 186 185 185 194 201 204 213 212 204 203 206 208 208 210 212 216 220 226 233 241 235 244 273 298 291 270 267 282 292 290 288
173 180 178 180 180 180 181 181 183 190 199 205 212 222 229 227 220 227 226 226 233 239 245 244 241 239 239 238 236 237 237 240 239 244 259 273 276 267 260 266 284 288 284
180 186 194 192 191 192 192 193 191 196 235 254 258 261 262 261 263 254 247 248 249 255 260 261 264 268 267 262 259 257 253 246 238 242 250 257 258 256 258 264 275 276 277
202 185 195 204 211 213 212 212 168 84 53 322 313 304 297 289 281 276 274 272 261 265 271 273 274 277 276 274 273 272 270 263 252 242 249 255 260 262 260 265 267 268 273
201 194 180 188 206 222 226 196 158 79 40 37 40 19 4 354 324 300 295 284 280 278 283 286 285 285 288 291 280 276 273 271 267 258 255 258 262 262 263 266 268 267 269
192 199 194 187 186 198 216 212 225 222 276 295 310 310 296 313 328 332 329 326 307 299 292 287 293 292 290 291 291 287 282 277 273 269 267 264 263 264 264 266 268 270 271
175 200 205 202 201 213 224 220 236 243 260 259 265 267 270 271 273 275 276 286 310 317 311 308 295 290 290 288 287 288 288 289 287 281 277 271 269 265 266 268 269 270 270
108 164 200 209 210 209 217 230 237 239 234 249 263 271 269 269 276 275 276 278 279 277 281 292 302 296 292 290 288 287 286 286 287 285 285 284 278 274 272 269 268 269 269
90 97 134 175 206 214 203 201 164 140 154 204 218 247 262 268 269 277 275 274 277 274 276 278 280 284 288 293 298 295 290 287 287 285 281 282 285 284 282 276 272 269 267
83 86 88 95 100 145 161 137 98 137 324 293 301 319 300 293 282 287 280 279 274 276 271 277 273 278 281 286 290 292 294 294 292 287 284 284 282 282 282 281 278 274 269
75 77 78 81 84 93 112 118 63 45 31 13 13 359 328 308 307 309 319 310 286 286 290 287 284 276 278 285 289 285 288 289 288 289 289 287 284 282 281 281 280 277 274
71 67 67 68 78 77 78 74 70 66 57 50 41 28 21 9 357 352 343 330 320 312 306 305 301 296 292 284 305 299 294 292 290 290 292 293 295 292 286 284 283 281 280
66 63 61 61 61 60 60 66 66 62 60 46 28 18 15 10 6 2 357 352 347 343 338 325 321 318 316 303 296 305 305 293 296 285 287 287 291 290 287 285 280 280 283
61 56 54 54 57 58 56 51 45 43 39 34 29 24 17 8 2 358 355 352 349 346 343 343 338 334 326 315 302 296 294 305 315 311 299 289 292 286 287 287 285 284 277
67 59 53 49 53 51 47 47 47 46 44 36 29 22 18 15 8 3 359 354 348 346 344 340 335 330 329 328 329 321 312 305 306 308 312 306 292 292 294 287 286 287 287
72 60 50 48 57 56 53 51 47 43 37 27 21 15 11 6 3 360 358 354 349 345 342 342 340 335 328 323 320 322 329 325 320 322 317 310 303 299 294 297 288 286 291